Regional Weather Roundup
Issued by NWS

Home | Current Version | Previous Version | Text Only | Print | Product List | Glossary On
Versions: 1 2 3 4 5 6 7 8 9 10 11 12 13 14 15 16 17 18 19 20 21 22 23 24 25 26 27 28 29 30 31 32 33 34 35 36 37 38 39 40 41 42 43 44 45 46 47 48 49 50
996
ASUS44 KLIX 301413
RWRLA
LOUISIANA WEATHER ROUNDUP
NATIONAL WEATHER SERVICE NEW ORLEANS LA
900 AM CDT SUN APR 30 2017

NOTE: "FAIR" INDICATES FEW OR NO CLOUDS BELOW 12,000 FEET WITH NO
      SIGNIFICANT WEATHER AND/OR OBSTRUCTIONS TO VISIBILITY.
      SKY/WX - SKY CONDITION AND SIGNIFICANT WEATHER.
      TMP - AIR TEMPERATURE.    DP   - DEWPOINT TEMPERATURE.
      RH  - RELATIVE HUMIDITY.  PRES - PRESSURE.
      HX  - HEAT INDEX.         WCI  - WIND CHILL INDEX.

*  THESE STATIONS ARE NOT NWS OR FAA STATIONS AND ARE NOT UNDER
   NWS QUALITY CONTROL.

LAZ040-048-061>063-065-066-069-301500-
SOUTHEAST LOUISIANA

CITY           SKY/WX    TMP DP  RH WIND       PRES   REMARKS
N.O. INTL ARPT CLOUDY    80  74  81 SE22G32   29.83R
N.O. LAKEFRONT CLOUDY    81  74  79 S24G32    29.85R
N.O. DOWNTOWN*   N/A     80  73  79 S14G28      N/A
RESERVE*       NOT AVBL
SLIDELL        CLOUDY    79  74  84 S15G23    29.86R
BATON ROUGE    TSTM      68  67  96 SE6       29.83R FOG
BOOTHVILLE     CLOUDY    80  76  87 SE16G26   29.88R
BELLE CHASSE   CLOUDY    81  75  82 S20G31    29.83S
BOGALUSA*      NOT AVBL
GALLIANO*      CLOUDY    80  73  78 S16G25    29.82S
NEW ROADS*     TSTM      68  67  96 W7        29.83R
GONZALES*      CLOUDY    80  72  75 SW14G22   29.83R
HAMMOND*       CLOUDY    79  70  73 S20G26    29.84R
HOUMA*         CLOUDY    81  73  78 SE21G33     N/A  FOG
PORT FOURCHON* SUNNY     81  75  83 S23G30    29.81F HAZE

$$

LAZ041-044-053-054-301500-
SOUTHWEST LOUISIANA

CITY           SKY/WX    TMP DP  RH WIND       PRES   REMARKS
LAKE CHARLES   CLOUDY    63  56  78 N7        29.82F
LAFAYETTE      CLOUDY    67  61  81 NW7       29.84R
PATTERSON      CLOUDY    68  66  94 W13G20    29.85R FOG
SALT POINT       N/A     68  66  93 VRB7G21   29.84R
NEW IBERIA     LGT RAIN  64  59  83 NW8       29.84R
CHENAULT AIRPK CLOUDY    59  55  88 NW8       29.83F

$$

LAZ027-028-301500-
CENTRAL LOUISIANA

CITY           SKY/WX    TMP DP  RH WIND       PRES   REMARKS
FORT POLK      PTSUNNY   61  57  87 W7        29.81S
ALEXANDRIA INT CLOUDY    62  58  86 W7        29.79R
ALEXANDRIA     CLOUDY    62  60  93 NW6       29.80R

$$

LAZ001-002-301500-
NORTHWEST LOUISIANA

CITY           SKY/WX    TMP DP  RH WIND       PRES   REMARKS
SHREVEPORT     CLOUDY    58  56  93 S8        29.81R
BARKSDALE AFB  CLOUDY    59  53  82 S8        29.80S
DTN SHREVEPORT PTSUNNY   59  54  83 S6        29.79F

$$

LAZ014-016-301500-
NORTHEAST LOUISIANA

CITY           SKY/WX    TMP DP  RH WIND       PRES   REMARKS
MONROE         CLOUDY    64  61  90 NW7       29.75F
TALLULAH       RAIN      68  67  96 S7        29.77R

$$





USA.gov is the U.S. government's official web portal to all federal, state and local government web resources and services.